Aurora, OR

12:52 AM PDT on March 26, 2017 (GMT -0700)
Aurora State

Weather History for KUAO - January, 2013

Change the Weather History Date:

Monday, January 14, 2013

  Actual Average Record
Temperature  
Mean Temperature 30 °F -  
Max Temperature 33 °F - 59 °F (2011)
Min Temperature 27 °F - 18 °F (2017)
Degree Days  
Heating Degree Days 35    
Month to date heating degree days 396  
Since 1 July heating degree days 2055  
Cooling Degree Days 0    
Month to date cooling degree days 0  
Year to date cooling degree days 0  
Moisture  
Dew Point 28 °F    
Average Humidity 89    
Maximum Humidity 92    
Minimum Humidity 85    
Precipitation  
Precipitation T in - 0.79 in (1951)
Month to date precipitation 0.54  
Year to date precipitation 0.54  
Sea Level Pressure  
Sea Level Pressure 30.56 in    
Wind  
Wind Speed 2 mph (SSW)    
Max Wind Speed 7 mph    
Max Gust Speed 8 mph    
Visibility 6 miles    
Events Snow    
T = Trace of Precipitation, MM = Missing Value Source: NWS Daily Summary

Daily Weather History Graph

Daily Weather History Graph

Search for Another Location

Airport or City:

Trip Planner

Search our weather history database for the weather conditions in past years. The results will help you decide how hot, cold, wet, or windy it might be!

Date:

Astronomy

Jan. 14, 2013 Rise Set
Actual Time 7:46 AM PST 4:54 PM PST
Civil Twilight 7:13 AM PST 5:27 PM PST
Nautical Twilight 6:37 AM PST 6:03 PM PST
Astronomical Twilight 6:02 AM PST 6:39 PM PST
Moon 9:11 AM PST (1/14) 8:58 PM PST (1/14)
Length of Visible Light 10h 13m
Length of Day
9h 07m
Waxing Crescent, 12% of the Moon is Illuminated
Jan 14
Waxing Crescent
Jan 18
First Quarter
Jan 26
Full
Feb 3
Last Quarter
Feb 9
New

Hourly Weather History & Observations

Time (PST) Temp. Windchill Dew Point Humidity Pressure Visibility Wind Dir Wind Speed Gust Speed Precip Events Conditions
12:53 AM 28.0 °F - 24.1 °F 85% 30.53 in 7.0 mi Calm Calm - N/A   Overcast
1:53 AM 28.0 °F - 24.1 °F 85% 30.53 in 8.0 mi Calm Calm - N/A   Overcast
2:53 AM 28.0 °F - 24.1 °F 85% 30.55 in 7.0 mi Calm Calm - N/A   Overcast
3:30 AM 28.4 °F 24.6 °F 24.8 °F 86% 30.53 in 7.0 mi SSW 3.5 mph - N/A   Overcast
3:53 AM 28.0 °F 24.2 °F 24.1 °F 85% 30.54 in 8.0 mi South 3.5 mph - N/A   Overcast
4:53 AM 28.0 °F 24.2 °F 25.0 °F 88% 30.55 in 7.0 mi SW 3.5 mph - N/A   Overcast
5:53 AM 27.0 °F 23.0 °F 24.1 °F 89% 30.55 in 8.0 mi South 3.5 mph - N/A   Overcast
6:53 AM 27.0 °F 23.0 °F 25.0 °F 92% 30.56 in 9.0 mi SSE 3.5 mph - N/A   Overcast
7:53 AM 27.0 °F 20.5 °F 25.0 °F 92% 30.56 in 9.0 mi South 5.8 mph - N/A   Overcast
8:53 AM 27.0 °F - 25.0 °F 92% 30.58 in 6.0 mi Calm Calm - N/A   Overcast
9:53 AM 28.0 °F - 26.1 °F 92% 30.59 in 3.0 mi Calm Calm - 0.00 in Snow Light Snow
11:53 AM 30.0 °F 25.2 °F 27.0 °F 88% 30.57 in 8.0 mi SW 4.6 mph - 0.00 in   Overcast
12:53 PM 30.0 °F 25.2 °F 27.0 °F 88% 30.56 in 4.0 mi SSW 4.6 mph - 0.00 in Snow Light Snow
1:25 PM 30.2 °F 25.4 °F 26.6 °F 86% 30.55 in 7.0 mi SSW 4.6 mph - 0.00 in   Overcast
2:39 PM 32.0 °F - 28.4 °F 87% 30.57 in 4.0 mi Calm Calm - N/A   Overcast
2:53 PM 32.0 °F - 28.0 °F 85% 30.58 in 6.0 mi Calm Calm - N/A   Overcast
3:53 PM 32.0 °F - 30.0 °F 92% 30.57 in 4.0 mi Calm Calm - N/A   Overcast
4:53 PM 32.0 °F - 30.0 °F 92% 30.57 in 3.0 mi Calm Calm - N/A   Overcast
5:53 PM 32.0 °F - 30.9 °F 96% 30.57 in 3.0 mi Calm Calm - N/A   Overcast
6:05 PM 32.0 °F - 30.2 °F 93% 30.56 in 4.0 mi Calm Calm - N/A   Overcast
6:53 PM 32.0 °F - 30.9 °F 96% 30.57 in 6.0 mi Calm Calm - N/A   Overcast
7:21 PM 32.0 °F - 30.2 °F 93% 30.57 in 7.0 mi Calm Calm - N/A   Overcast
7:30 PM 32.0 °F - 30.2 °F 93% 30.57 in 7.0 mi Calm Calm - N/A   Overcast
7:53 PM 32.0 °F - 30.9 °F 96% 30.58 in 6.0 mi Calm Calm - N/A   Overcast
8:25 PM 32.0 °F - 30.2 °F 93% 30.57 in 5.0 mi Calm Calm - N/A   Overcast
8:53 PM 32.0 °F - 30.9 °F 96% 30.58 in 5.0 mi Calm Calm - N/A   Overcast
9:53 PM 32.0 °F - 30.9 °F 96% 30.58 in 6.0 mi Calm Calm - N/A   Overcast
10:53 PM 33.1 °F - 30.9 °F 92% 30.58 in 6.0 mi Calm Calm - N/A   Overcast
11:53 PM 32.0 °F - 30.9 °F 96% 30.58 in 6.0 mi Calm Calm - N/A   Overcast